Time,TemperatureF,DewpointF,PressureIn,WindDirection,WindDirectionDegrees,WindSpeedMPH,WindSpeedGustMPH,Humidity,HourlyPrecipIn,Conditions,Clouds,dailyrainin,SolarRadiationWatts/m^2,SoftwareType,DateUTC
2013-02-20 01:32:00,38.0,35.0,-100.00,SW,230,2.0,7.0,89,-99.99,,,0.73,0.000000,,2013-02-20 09:32:00,
2013-02-20 01:42:00,38.0,35.0,-100.00,SW,230,2.0,7.0,89,-99.99,,,0.73,0.000000,,2013-02-20 09:42:00,
2013-02-20 01:52:00,38.0,35.0,-100.00,SW,230,2.0,7.0,89,-99.99,,,0.73,0.000000,,2013-02-20 09:52:00,
2013-02-20 02:01:00,38.0,35.0,-100.00,SW,230,2.0,7.0,89,-99.99,,,0.73,0.000000,,2013-02-20 10:01:00,
2013-02-20 03:32:00,39.0,33.0,-100.00,NE,45,3.0,8.0,79,-99.99,,,0.73,0.000000,,2013-02-20 11:32:00,
2013-02-20 03:42:00,39.0,33.0,-100.00,NE,45,3.0,8.0,79,-99.99,,,0.73,0.000000,,2013-02-20 11:42:00,
2013-02-20 03:52:00,39.0,33.0,-100.00,NE,45,3.0,8.0,79,-99.99,,,0.73,0.000000,,2013-02-20 11:52:00,
2013-02-20 04:01:00,39.0,33.0,-100.00,NE,45,3.0,8.0,79,-99.99,,,0.73,0.000000,,2013-02-20 12:01:00,
2013-02-20 04:32:00,39.0,33.0,-100.00,ENE,68,3.0,12.0,79,0.00,,,0.73,0.000000,,2013-02-20 12:32:00,
2013-02-20 04:42:00,39.0,33.0,-100.00,ENE,68,3.0,12.0,79,0.00,,,0.73,0.000000,,2013-02-20 12:42:00,
2013-02-20 04:53:00,39.0,33.0,-100.00,ENE,68,3.0,12.0,79,0.00,,,0.73,0.000000,,2013-02-20 12:53:00,
2013-02-20 05:01:00,39.0,33.0,-100.00,ENE,68,3.0,12.0,79,0.00,,,0.73,0.000000,,2013-02-20 13:01:00,
2013-02-20 06:32:00,41.0,33.0,-100.00,SW,221,3.0,9.0,74,-99.99,,,0.73,0.000000,,2013-02-20 14:32:00,
2013-02-20 06:42:00,41.0,33.0,-100.00,SW,221,3.0,9.0,74,-99.99,,,0.73,0.000000,,2013-02-20 14:42:00,
2013-02-20 06:52:00,41.0,33.0,-100.00,SW,221,3.0,9.0,74,-99.99,,,0.73,0.000000,,2013-02-20 14:52:00,
2013-02-20 07:01:00,41.0,33.0,-100.00,SW,221,3.0,9.0,74,-99.99,,,0.73,0.000000,,2013-02-20 15:01:00,
2013-02-20 07:32:00,40.0,32.0,-100.00,SSW,204,2.0,7.0,73,0.00,,,0.73,2.000000,,2013-02-20 15:32:00,
2013-02-20 07:42:00,40.0,32.0,-100.00,SSW,204,2.0,7.0,73,0.00,,,0.73,2.000000,,2013-02-20 15:42:00,
2013-02-20 07:52:00,40.0,32.0,-100.00,SSW,204,2.0,7.0,73,0.00,,,0.73,2.000000,,2013-02-20 15:52:00,
2013-02-20 08:01:00,40.0,32.0,-100.00,SSW,204,2.0,7.0,73,0.00,,,0.73,2.000000,,2013-02-20 16:01:00,
2013-02-20 08:32:00,46.0,33.0,-100.00,ESE,116,4.0,10.0,60,0.00,,,-99.99,49.000000,,2013-02-20 16:32:00,
2013-02-20 08:42:00,46.0,33.0,-100.00,ESE,116,4.0,10.0,60,0.00,,,-99.99,49.000000,,2013-02-20 16:42:00,
2013-02-20 08:52:00,46.0,33.0,-100.00,ESE,116,4.0,10.0,60,0.00,,,-99.99,49.000000,,2013-02-20 16:52:00,
2013-02-20 09:01:00,46.0,33.0,-100.00,ESE,116,4.0,10.0,60,0.00,,,-99.99,49.000000,,2013-02-20 17:01:00,
2013-02-20 09:32:00,53.0,32.0,-100.00,NW,318,5.0,16.0,45,0.00,,,0.71,345.000000,,2013-02-20 17:32:00,
2013-02-20 09:42:00,53.0,32.0,-100.00,NW,318,5.0,16.0,45,0.00,,,0.71,345.000000,,2013-02-20 17:42:00,
2013-02-20 09:52:00,53.0,32.0,-100.00,NW,318,5.0,16.0,45,0.00,,,0.71,345.000000,,2013-02-20 17:52:00,
2013-02-20 10:02:00,53.0,32.0,-100.00,NW,318,5.0,16.0,45,0.00,,,0.71,345.000000,,2013-02-20 18:02:00,
2013-02-20 10:32:00,55.0,32.0,-100.00,NNW,345,5.0,15.0,41,0.00,,,0.71,528.000000,,2013-02-20 18:32:00,
2013-02-20 10:42:00,55.0,32.0,-100.00,NNW,345,5.0,15.0,41,0.00,,,0.71,528.000000,,2013-02-20 18:42:00,
2013-02-20 10:52:00,55.0,32.0,-100.00,NNW,345,5.0,15.0,41,0.00,,,0.71,528.000000,,2013-02-20 18:52:00,
2013-02-20 11:01:00,55.0,32.0,-100.00,NNW,345,5.0,15.0,41,0.00,,,0.71,528.000000,,2013-02-20 19:01:00,
2013-02-20 11:32:00,57.0,32.0,-100.00,NW,311,5.0,16.0,39,0.00,,,0.70,659.000000,,2013-02-20 19:32:00,
2013-02-20 11:42:00,57.0,32.0,-100.00,NW,311,5.0,16.0,39,0.00,,,0.70,659.000000,,2013-02-20 19:42:00,
2013-02-20 11:52:00,57.0,32.0,-100.00,NW,311,5.0,16.0,39,0.00,,,0.70,659.000000,,2013-02-20 19:52:00,
2013-02-20 12:01:00,57.0,32.0,-100.00,NW,311,5.0,16.0,39,0.00,,,0.70,659.000000,,2013-02-20 20:01:00,
2013-02-20 12:31:00,56.0,40.0,-100.00,NNW,334,6.0,15.0,54,0.00,,,0.67,730.000000,,2013-02-20 20:31:00,
2013-02-20 12:41:00,56.0,40.0,-100.00,NNW,334,6.0,15.0,54,0.00,,,0.67,730.000000,,2013-02-20 20:41:00,
2013-02-20 12:51:00,56.0,40.0,-100.00,NNW,334,6.0,15.0,54,0.00,,,0.67,730.000000,,2013-02-20 20:51:00,
2013-02-20 13:01:00,56.0,40.0,-100.00,NNW,334,6.0,15.0,54,0.00,,,0.67,730.000000,,2013-02-20 21:01:00,
2013-02-20 13:32:00,57.0,41.0,-100.00,NW,323,5.0,13.0,56,0.00,,,0.36,732.000000,,2013-02-20 21:32:00,
2013-02-20 13:42:00,57.0,41.0,-100.00,NW,323,5.0,13.0,56,0.00,,,0.36,732.000000,,2013-02-20 21:42:00,
2013-02-20 13:52:00,57.0,41.0,-100.00,NW,323,5.0,13.0,56,0.00,,,0.36,732.000000,,2013-02-20 21:52:00,
2013-02-20 14:01:00,57.0,41.0,-100.00,NW,323,5.0,13.0,56,0.00,,,0.36,732.000000,,2013-02-20 22:01:00,
2013-02-20 14:32:00,56.0,40.0,-100.00,WNW,299,5.0,13.0,55,0.00,,,0.23,676.000000,,2013-02-20 22:32:00,
2013-02-20 14:43:00,56.0,40.0,-100.00,WNW,299,5.0,13.0,55,0.00,,,0.23,676.000000,,2013-02-20 22:43:00,
2013-02-20 14:51:00,56.0,40.0,-100.00,WNW,299,5.0,13.0,55,0.00,,,0.23,676.000000,,2013-02-20 22:51:00,
2013-02-20 15:01:00,56.0,40.0,-100.00,WNW,299,5.0,13.0,55,0.00,,,0.23,676.000000,,2013-02-20 23:01:00,
2013-02-20 15:32:00,56.0,40.0,-100.00,NW,313,4.0,13.0,55,0.00,,,0.20,555.000000,,2013-02-20 23:32:00,
2013-02-20 15:42:00,56.0,40.0,-100.00,NW,313,4.0,13.0,55,0.00,,,0.20,555.000000,,2013-02-20 23:42:00,
2013-02-20 15:52:00,56.0,40.0,-100.00,NW,313,4.0,13.0,55,0.00,,,0.20,555.000000,,2013-02-20 23:52:00,
2013-02-20 16:02:00,56.0,40.0,-100.00,NW,313,4.0,13.0,55,0.00,,,0.20,555.000000,,2013-02-21 00:02:00,
2013-02-20 16:32:00,51.0,40.0,-100.00,NW,325,3.0,10.0,65,0.00,,,0.19,214.000000,,2013-02-21 00:32:00,
2013-02-20 16:42:00,51.0,40.0,-100.00,NW,325,3.0,10.0,65,0.00,,,0.19,214.000000,,2013-02-21 00:42:00,
2013-02-20 16:52:00,51.0,40.0,-100.00,NW,325,3.0,10.0,65,0.00,,,0.19,214.000000,,2013-02-21 00:52:00,
2013-02-20 17:01:00,51.0,40.0,-100.00,NW,325,3.0,10.0,65,0.00,,,0.19,214.000000,,2013-02-21 01:01:00,
2013-02-20 17:32:00,49.0,39.0,-100.00,WSW,255,4.0,12.0,68,0.00,,,0.19,27.000000,,2013-02-21 01:32:00,
2013-02-20 17:42:00,49.0,39.0,-100.00,WSW,255,4.0,12.0,68,0.00,,,0.19,27.000000,,2013-02-21 01:42:00,
2013-02-20 17:52:00,49.0,39.0,-100.00,WSW,255,4.0,12.0,68,0.00,,,0.19,27.000000,,2013-02-21 01:52:00,
2013-02-20 18:01:00,49.0,39.0,-100.00,WSW,255,4.0,12.0,68,0.00,,,0.19,27.000000,,2013-02-21 02:01:00,
2013-02-20 18:32:00,48.0,38.0,-100.00,WSW,256,3.0,12.0,68,0.00,,,0.15,11.000000,,2013-02-21 02:32:00,
2013-02-20 18:42:00,48.0,38.0,-100.00,WSW,256,3.0,12.0,68,0.00,,,0.15,11.000000,,2013-02-21 02:42:00,
2013-02-20 18:52:00,48.0,38.0,-100.00,WSW,256,3.0,12.0,68,0.00,,,0.15,11.000000,,2013-02-21 02:52:00,
2013-02-20 19:01:00,48.0,38.0,-100.00,WSW,256,3.0,12.0,68,0.00,,,0.15,11.000000,,2013-02-21 03:01:00,
2013-02-20 19:32:00,44.0,38.0,-100.00,SSW,195,2.0,7.0,78,0.00,,,0.12,0.000000,,2013-02-21 03:32:00,
2013-02-20 19:42:00,44.0,38.0,-100.00,SSW,195,2.0,7.0,78,0.00,,,0.12,0.000000,,2013-02-21 03:42:00,
2013-02-20 19:52:00,44.0,38.0,-100.00,SSW,195,2.0,7.0,78,0.00,,,0.12,0.000000,,2013-02-21 03:52:00,
2013-02-20 20:01:00,44.0,38.0,-100.00,SSW,195,2.0,7.0,78,0.00,,,0.12,0.000000,,2013-02-21 04:01:00,
2013-02-20 20:32:00,44.0,38.0,-100.00,West,259,2.0,8.0,78,0.00,,,0.11,0.000000,,2013-02-21 04:32:00,
2013-02-20 20:42:00,44.0,38.0,-100.00,West,259,2.0,8.0,78,0.00,,,0.11,0.000000,,2013-02-21 04:42:00,
2013-02-20 20:52:00,44.0,38.0,-100.00,West,259,2.0,8.0,78,0.00,,,0.11,0.000000,,2013-02-21 04:52:00,
2013-02-20 21:02:00,44.0,38.0,-100.00,West,259,2.0,8.0,78,0.00,,,0.11,0.000000,,2013-02-21 05:02:00,
2013-02-20 21:37:00,43.0,38.0,-100.00,SSW,193,2.0,5.0,83,0.00,,,0.05,0.000000,,2013-02-21 05:37:00,
2013-02-20 21:46:00,43.0,38.0,-100.00,SSW,193,2.0,5.0,83,0.00,,,0.05,0.000000,,2013-02-21 05:46:00,
2013-02-20 21:58:00,43.0,38.0,-100.00,SSW,193,2.0,5.0,83,0.00,,,0.05,0.000000,,2013-02-21 05:58:00,
2013-02-20 22:31:00,42.0,38.0,-100.00,South,182,2.0,5.0,86,0.00,,,0.02,0.000000,,2013-02-21 06:31:00,
2013-02-20 22:41:00,42.0,38.0,-100.00,South,182,2.0,5.0,86,0.00,,,0.02,0.000000,,2013-02-21 06:41:00,
2013-02-20 22:51:00,42.0,38.0,-100.00,South,182,2.0,5.0,86,0.00,,,0.02,0.000000,,2013-02-21 06:51:00,
2013-02-20 23:01:00,42.0,38.0,-100.00,South,182,2.0,5.0,86,0.00,,,0.02,0.000000,,2013-02-21 07:01:00,
2013-02-20 23:32:00,41.0,37.0,-100.00,South,190,2.0,4.0,87,0.00,,,-99.99,0.000000,,2013-02-21 07:32:00,
2013-02-20 23:42:00,41.0,37.0,-100.00,South,190,2.0,4.0,87,0.00,,,-99.99,0.000000,,2013-02-21 07:42:00,
2013-02-20 23:52:00,41.0,37.0,-100.00,South,190,2.0,4.0,87,0.00,,,-99.99,0.000000,,2013-02-21 07:52:00,